FENGYUN 1C DEB, 41830

Orbit data source: Space-Track

FENGYUN 1C DEB, 41830 is space debris in SSO originally from a launch on Mon, 10 May 1999 UTC launched from the Taiyaun Space Center, China (TSC). Fengyun 1C debris stems from the Chinese weather satellite Fengyun-1C, which was intentionally destroyed by a Chinese anti-satellite missile in 2007. This event dramatically increased the amount of space debris, with thousands of trackable fragments posing hazards to satellites and human spaceflight. The Fengyun 1C debris cloud has become a focal point in discussions about space sustainability and the need for international regulations to prevent the creation of new debris.

Loading next visibility...
Identifier
41830, 1999-025EYH
Orbit
SSO
Country
Flag of CNCN / PRC
Related business
Manufacturer
Unknown
Mission
Spacecraft
Bus & Motor
Unknown
Mass
Unknown
Launch date (UTC)
1999-05-10 (26 years ago)
Launch vehicle
Unknown
Launch site
Taiyaun Space Center, China (TSC)
Object type
Payload
Rocket body
Debris
Shape & HBR
Unknown
Radar Cross Section
Small (<0.1 m²)

Expand to show TLE details & history
Last TLE update: 13 hours ago

TLE from 13 hours ago
0 FENGYUN 1C DEB
1 41830U 99025EYH 25259.47117665  .00003704  00000-0  15608-2 0  9997
2 41830  98.7597 331.5332 0055925 112.5951 248.1158 14.25453688460301
Epoch: 2025-09-16T11:18Z
TLE epoch observation values (Epoch: 2025-09-16T11:18:29.662Z)
Latitude
-0.00004°
Longitude
166.24861°
Altitude
825.062 km
Speed
7.433 km/s
True Right ascension
22h 06m 07s
True Declination
0° 00' 00"
Sunlit
Object was in full shadow at epoch
Visualization orbit readout
Latitude
Unknown
Longitude
Unknown
Altitude
Unknown
Speed
Unknown
Apparent Right ascension
Unknown
Apparent Declination
Unknown
Sunlit
N/A
Visualization observer readout
Local Sidereal Time
17:23:51
Azimuth
Unknown
Elevation
Unknown
Doppler factor
Unknown
Orbital elements
Apogee altitude
844.288 km
Perigee altitude
763.954 km
Semi-major axis
7,182.258 km
Eccentricity
0.00559
Inclination
98.7597°
RAAN
331.5332°
Arg. of periapsis
112.5951°
True anomaly
247.52268°
Mean anomaly
248.1158°
Eccentric anomaly
247.81909°
Mean motion
3.56576 °/min
Orbital period
100.96 mins
BSTAR
0.0015608
Loading maneuver chart data...
Computing Atmospheric mass density...
Loading historical data...
Loading historical data...
Loading historical data...
Loading historical data...
Loading historical data...
Loading historical data...
Loading historical data...

Documentation

Showing up to 5 results
|